Location: Gloden
(48.4833°N, 15.3167°E)
Time: 16:41:09
(UTC+00:00)

Okean 3 - Pass Details

Date: 15 December 2019
Orbit: 577 x 600 km, 82.5° (Epoch: 24 January)

Event Time Altitude Azimuth Distance (km) Brightness Sun altitude
Exits shadow 05:06:46 26° 297° (WNW) 1,156 4.3 -15.1°
Maximum altitude 05:07:48 30° 270° (W) 1,066 4.2 -14.9°
Drops below altitude 10° 05:11:28 10° 209° (SSW) 1,906 6.0 -14.4°
Sets 05:13:51 0° 199° (SSW) 2,805 6.9 -14.0°
